Bluefield, WV

3:57 PM EST on January 21, 2018 (GMT -0500)
Mercer County

Weather History for KBLF - April, 2014

Change the Weather History Date:

Monday, April 7, 2014

  Actual Average Record
Temperature  
Mean Temperature 53 °F 52 °F  
Max Temperature 62 °F 62 °F 82 °F (2010)
Min Temperature 43 °F 43 °F 15 °F (1982)
Degree Days  
Heating Degree Days 12 13  
Month to date heating degree days 54 98  
Since 1 July heating degree days 4391 4207  
Cooling Degree Days 0 1  
Month to date cooling degree days 5 5  
Year to date cooling degree days 5 9  
Growing Degree Days 2 (Base 50)    
Moisture  
Dew Point 44 °F    
Average Humidity 65    
Maximum Humidity 83    
Minimum Humidity 46    
Precipitation  
Precipitation 0.53 in 0.11 in 1.58 in (1972)
Month to date precipitation 1.21 0.73  
Year to date precipitation 7.30 9.90  
Snow  
Snow 0.00 in - - ()
Month to date snowfall 0.0  
Since 1 July snowfall 46.6  
Snow Depth 0.00 in    
Sea Level Pressure  
Sea Level Pressure 29.75 in    
Wind  
Wind Speed 10 mph (SSE)    
Max Wind Speed 23 mph    
Max Gust Speed 33 mph    
Visibility 9 miles    
Events Rain    
T = Trace of Precipitation, MM = Missing Value Source: NWS Daily Summary

Daily Weather History Graph

Daily Weather History Graph

Search for Another Location

Airport or City:

Trip Planner

Search our weather history database for the weather conditions in past years. The results will help you decide how hot, cold, wet, or windy it might be!

Date:

Astronomy

Apr. 07, 2014 Rise Set
Actual Time 7:01 AM EDT 7:52 PM EDT
Civil Twilight 6:35 AM EDT 8:19 PM EDT
Nautical Twilight 6:03 AM EDT 8:50 PM EDT
Astronomical Twilight 5:31 AM EDT 9:23 PM EDT
Moon 12:59 PM EDT (4/7) 2:25 AM EDT (4/7)
Length of Visible Light 13h 44m
Length of Day
12h 51m
First Quarter, 53% of the Moon is Illuminated
Apr 7
First Quarter
Apr 15
Full
Apr 22
Last Quarter
Apr 29
New
May 6
First Quarter

Hourly Weather History & Observations

Time (EDT) Temp. Windchill Dew Point Humidity Pressure Visibility Wind Dir Wind Speed Gust Speed Precip Events Conditions
12:52 AM 50.0 °F - 30.9 °F 48% 30.00 in 10.0 mi Variable 6.9 mph - N/A   Overcast
1:52 AM 45.0 °F 40.1 °F 36.0 °F 71% 30.00 in 10.0 mi SE 9.2 mph 18.4 mph 0.02 in Rain Light Rain
2:52 AM 44.1 °F 40.1 °F 37.9 °F 79% 29.96 in 8.0 mi SE 6.9 mph - 0.07 in Rain Light Rain
3:52 AM 43.0 °F 37.7 °F 37.9 °F 82% 29.94 in 7.0 mi SE 9.2 mph 20.7 mph 0.09 in Rain Light Rain
4:31 AM 43.0 °F 38.2 °F 37.9 °F 82% 29.95 in 8.0 mi SE 8.1 mph - 0.04 in Rain Light Rain
4:49 AM 42.8 °F 38.6 °F 37.4 °F 81% 29.95 in 8.0 mi SE 6.9 mph - 0.06 in Rain Light Rain
4:52 AM 43.0 °F 38.8 °F 37.9 °F 82% 29.92 in 8.0 mi Variable 6.9 mph - 0.06 in Rain Light Rain
5:52 AM 43.0 °F 37.7 °F 37.9 °F 82% 29.89 in 10.0 mi ESE 9.2 mph - 0.00 in   Overcast
6:52 AM 44.1 °F 39.5 °F 39.0 °F 82% 29.91 in 7.0 mi SE 8.1 mph - 0.07 in Rain Rain
7:01 AM 44.1 °F 38.1 °F 39.0 °F 82% 29.93 in 5.0 mi SSE 11.5 mph - 0.03 in Rain Rain
7:52 AM 45.0 °F 38.5 °F 39.9 °F 82% 29.88 in 8.0 mi SE 13.8 mph 19.6 mph 0.13 in Rain Light Rain
8:35 AM 46.0 °F 41.4 °F 41.0 °F 83% 29.90 in 8.0 mi SE 9.2 mph - 0.04 in Rain Light Rain
8:52 AM 46.0 °F 42.5 °F 41.0 °F 83% 29.87 in 10.0 mi SE 6.9 mph 19.6 mph 0.05 in Rain Light Rain
9:03 AM 46.9 °F - 42.1 °F 83% 29.88 in 7.0 mi SE 8.1 mph - 0.01 in Rain Light Rain
9:38 AM 46.9 °F - 42.1 °F 83% 29.77 in 8.0 mi East 13.8 mph 19.6 mph 0.03 in Rain Light Rain
9:50 AM 48.2 °F - 42.8 °F 82% 29.84 in 10.0 mi Variable 6.9 mph 17.3 mph 0.03 in Rain Light Rain
9:52 AM 48.0 °F - 43.0 °F 83% 29.81 in 10.0 mi SE 10.4 mph 17.3 mph 0.03 in Rain Light Rain
10:52 AM 48.0 °F - 43.0 °F 83% 29.71 in 10.0 mi SE 11.5 mph 32.2 mph 0.00 in   Overcast
11:52 AM 50.0 °F - 44.1 °F 80% 29.78 in 10.0 mi Variable 6.9 mph - N/A   Overcast
12:52 PM 51.1 °F - 44.1 °F 77% 29.75 in 10.0 mi SSE 12.7 mph 18.4 mph N/A   Overcast
1:15 PM 52.0 °F - 44.1 °F 74% 29.77 in 10.0 mi SSE 12.7 mph 21.9 mph N/A   Mostly Cloudy
1:40 PM 53.1 °F - 45.0 °F 74% 29.74 in 10.0 mi SE 15.0 mph 27.6 mph N/A   Mostly Cloudy
1:52 PM 52.0 °F - 45.0 °F 77% 29.71 in 10.0 mi SE 10.4 mph 20.7 mph N/A   Overcast
2:10 PM 53.1 °F - 45.0 °F 74% 29.74 in 10.0 mi SSE 16.1 mph 31.1 mph N/A   Mostly Cloudy
2:25 PM 52.0 °F - 45.0 °F 77% 29.73 in 10.0 mi SE 8.1 mph 17.3 mph N/A   Mostly Cloudy
2:52 PM 53.1 °F - 45.0 °F 74% 29.68 in 10.0 mi SE 12.7 mph 31.1 mph N/A   Mostly Cloudy
3:09 PM 54.0 °F - 45.0 °F 72% 29.68 in 10.0 mi SSE 11.5 mph 27.6 mph N/A   Scattered Clouds
3:52 PM 55.0 °F - 46.0 °F 72% 29.63 in 10.0 mi South 16.1 mph 23.0 mph N/A   Clear
4:52 PM 57.0 °F - 46.9 °F 69% 29.59 in 10.0 mi Variable 4.6 mph - N/A   Mostly Cloudy
5:52 PM 61.0 °F - 48.9 °F 64% 29.57 in 10.0 mi SSE 16.1 mph 23.0 mph N/A   Mostly Cloudy
6:02 PM 61.0 °F - 48.9 °F 64% 29.61 in 10.0 mi South 12.7 mph 23.0 mph N/A   Scattered Clouds
6:16 PM 61.0 °F - 48.9 °F 64% 29.61 in 10.0 mi South 8.1 mph - N/A   Mostly Cloudy
6:52 PM 61.0 °F - 48.9 °F 64% 29.57 in 10.0 mi SW 4.6 mph - N/A   Overcast
7:52 PM 61.0 °F - 50.0 °F 67% 29.55 in 10.0 mi Calm Calm - N/A   Mostly Cloudy
7:59 PM 61.0 °F - 50.0 °F 67% 29.59 in 10.0 mi SSW 3.5 mph - N/A   Mostly Cloudy
8:52 PM 61.0 °F - 50.0 °F 67% 29.55 in 10.0 mi South 12.7 mph 21.9 mph N/A   Mostly Cloudy
9:43 PM 60.1 °F - 52.0 °F 75% 29.61 in 10.0 mi SSW 4.6 mph - 0.00 in   Overcast
9:52 PM 60.1 °F - 52.0 °F 75% 29.56 in 10.0 mi SSW 6.9 mph - 0.00 in   Overcast
10:52 PM 61.0 °F - 51.1 °F 70% 29.55 in 10.0 mi SSW 9.2 mph - N/A   Overcast
11:32 PM 62.1 °F - 50.0 °F 65% 29.60 in 10.0 mi SW 16.1 mph 32.2 mph N/A   Overcast
11:52 PM 61.0 °F - 48.9 °F 64% 29.54 in 10.0 mi WSW 18.4 mph 25.3 mph N/A   Mostly Cloudy